Preview of NWS' New Version of Forecast
This preview is not operational and should not be used for support decisions.

Regional Weather Roundup (RWR)

Issued by National Weather Service (NWS)

                            
000
ASUS45 KBOU 250210
RWRCO 

WEATHER ROUNDUP FOR COLORADO
NATIONAL WEATHER SERVICE DENVER/BOULDER CO
800 PM MDT WED APR 24 2019

NOTE: "FAIR" INDICATES FEW OR NO CLOUDS BELOW 12000 FEET WITH NO
SIGNIFICANT WEATHER AND/OR OBSTRUCTIONS TO VISIBILITY.

COZ001>005-013-030-031-250300-
...NORTHWEST COLORADO...
  
CITY           SKY/WX    TMP DP  RH WIND       PRES   REMARKS
CRAIG          MOCLDY    61  35  37 W8G21     30.02R                  
HAYDEN         CLOUDY    60  34  37 NW7       30.04R                  
MEEKER         MOCLDY    61  30  31 W8        30.03R                  
RANGELY        MOCLDY    63  37  38 W5        29.99R                  
RABBIT EARS PA NOT AVBL                                               
STEAMBOAT SPGS CLOUDY    57  33  40 W13       30.04S                  
WALDEN         MOCLDY    52  30  43 W16G22    30.11R                  
$$

COZ006>008-011-250300-
...WEST CENTRAL VALLEYS...
  
CITY           SKY/WX    TMP DP  RH WIND       PRES   REMARKS
GRAND JUNCTION FAIR      67  36  31 NW7       29.94S                  
MONTROSE       FAIR      65  29  25 N3        30.02R                  
EAGLE          MOCLDY    61  30  31 SW9       30.04R                  
RIFLE          FAIR      64  37  36 W5        29.97R                  
DELTA          FAIR      71  26  18 NW8       29.97R                  
NUCLA          FAIR      64  27  24 NW8       30.04R                  
$$

COZ017>023-064>068-250300-
...SOUTHWEST COLORADO...
  
CITY           SKY/WX    TMP DP  RH WIND       PRES   REMARKS
DURANGO        FAIR      61  29  29 NW13      30.02R                  
CORTEZ         FAIR      65  29  25 NW7       30.01R                  
PAGOSA SPRINGS CLOUDY    61  26  26 N5        30.07S                  
TELLURIDE        N/A     50  27  40 CALM      30.20R                  
WOLF CREEK PAS FAIR      36  23  60 NW7       30.35R                  
$$

COZ009-010-012-014-032>034-037-058>063-250300-
...CENTRAL COLORADO...
  
CITY           SKY/WX    TMP DP  RH WIND       PRES   REMARKS
ASPEN          FAIR      54  26  34 NW8       30.08R                  
BUENA VISTA    FAIR      54  21  27 W8        30.09R                  
COPPER MTN     NOT AVBL                                               
BERTHOUD PASS  FAIR      30  21  69 NW23G29   30.27S WCI  17          
COTTONWOOD PAS FAIR      46  23  39 NW6       30.19R                  
GUNNISON       FAIR      54  29  38 NW8       30.10R                  
GRANBY         FAIR      50  29  44 W6        30.10R                  
KREMMLING      MOCLDY    54  30  40 W5        30.07R                  
LEADVILLE      FAIR      41  26  55 CALM      30.18R                  
MONARCH PASS   FAIR      36  23  60 NW13      30.39S                  
SALIDA         FAIR      58  25  28 W10       30.13R                  
SUNLIGHT       NOT AVBL                                               
WILKERSON PASS FAIR      37  23  56 N9G20     30.26S                  
$$

COZ069>075-250300-
...SAN LUIS VALLEY/SANGRE DE CRISTO MOUNTAINS...
  
CITY           SKY/WX    TMP DP  RH WIND       PRES   REMARKS
ALAMOSA        CLOUDY    58  26  29 N24G35    30.04R                  
DEL NORTE      MOCLDY    56  27  33 NW10      30.09R                  
LA VETA PASS   NOT AVBL                                               
SAGUACHE       FAIR      54  30  40 CALM      30.08R                  
$$

COZ035-036-038>040-250300-
...NORTHERN COLORADO FRONT RANGE...
  
CITY           SKY/WX    TMP DP  RH WIND       PRES   REMARKS
DENVER INTL AP FAIR      64  37  36 E3        29.91R                  
AURORA         PTCLDY    62  36  38 E5        29.93R                  
FRONT RANGE AP MOCLDY    66  36  32 CALM      29.92S                  
ERIE MUNI ARPT FAIR      63  34  33 CALM      29.94S                  
BOULDER MUN AP FAIR      64  34  32 CALM      29.90R                  
CENTENNIAL     FAIR      64  33  31 SE3       29.94R                  
BROOMFIELD     PTCLDY    66  32  28 VRB6      29.92S                  
FORT COLLINS   MOCLDY    63  41  44 S7        29.89R                  
LONGMONT       FAIR      63  40  43 S3        29.91R                  
$$

COZ041-046-047-076>085-087-088-250300-
...PIKES PEAK/PALMER DIVIDE AND SOUTHERN FOOTHILLS...
  
CITY           SKY/WX    TMP DP  RH WIND       PRES   REMARKS
COLO. SPRINGS  FAIR      61  33  35 E9        29.99R                  
A. F. ACADEMY  CLOUDY    58  33  39 E3        29.98R                  
SCHRIEVER AFB  NOT AVBL                                               
CHEYENNE MTN   NOT AVBL                                               
ELLICOTT         N/A    N/A N/A N/A NW8       29.97R                  
FALCON         MOCLDY    56  29  34 NE3       30.02S                  
FORT CARSON    FAIR      61  32  33 E3        29.94S                  
LIMON          FAIR      52  36  54 N6        29.92R                  
MONUMENT HILL  FAIR      52  32  46 E7        30.03R                  
CANON CITY     NOT AVBL                                               
WALSENBURG     NOT AVBL                                               
TRINIDAD       FAIR      60  35  39 SE5       29.95R                  
$$

COZ042>045-048>051-090-091-250300-
...NORTHEAST COLORADO...
  
CITY           SKY/WX    TMP DP  RH WIND       PRES   REMARKS
GREELEY ARPT   FAIR      62  40  44 S6        29.87R                  
AKRON          FAIR      62  36  37 SE5       29.86S                  
BURLINGTON     FAIR      60  39  45 SE3       29.87R                  
WRAY           FAIR      66  34  30 E3        29.83R                  
YUMA           NOT AVBL                                               
STERLING       FAIR      63  37  39 S6        29.81S                  
HOLYOKE        FAIR      63  37  39 SE7       29.82S                  
FORT MORGAN      N/A     64  32  30 E3        29.86S                  
$$

COZ086-089-092>099-250300-
...SOUTHEAST COLORADO...
  
CITY           SKY/WX    TMP DP  RH WIND       PRES   REMARKS
PUEBLO         MOCLDY    69  33  26 E8        29.88R                  
LA JUNTA       FAIR      66  35  31 MISG      29.86R                  
LAMAR          FAIR      62  35  36 E6        29.83R                  
SPRINGFIELD      N/A     53  40  61 SE10      29.88R                  
$$